Wetterdaten: Samstag, 28.09.2013
Datum Zeit Temperatur Luftfeuchte Luftdruck Regen Wind Richtung Richtung Taupunkt Windchill Windben
28.09.2013 00:00 13,1 C 95 % 1017,0 hPa 0,0 l/m 0,0 km/h (0 Bft) W-NW 292 12,3 C 13,3 C 0,0 km/h (0 Bft)
28.09.2013 00:05 13,1 C 95 % 1016,8 hPa 0,0 l/m 0,0 km/h (0 Bft) N 360 12,3 C 13,3 C 0,0 km/h (0 Bft)
28.09.2013 00:10 13,1 C 95 % 1016,8 hPa 0,0 l/m 0,0 km/h (0 Bft) W-NW 292 12,3 C 13,3 C 0,0 km/h (0 Bft)
28.09.2013 00:15 13,1 C 95 % 1016,8 hPa 0,0 l/m 0,0 km/h (0 Bft) S-SW 202 12,3 C 13,3 C 0,0 km/h (0 Bft)
28.09.2013 00:20 13,1 C 95 % 1016,8 hPa 0,0 l/m 0,0 km/h (0 Bft) W-SW 247 12,3 C 13,3 C 0,0 km/h (0 Bft)
28.09.2013 00:25 13,0 C 95 % 1016,6 hPa 0,0 l/m 0,0 km/h (0 Bft) W-NW 292 12,2 C 13,3 C 0,0 km/h (0 Bft)
28.09.2013 00:30 13,1 C 95 % 1016,6 hPa 0,0 l/m 0,0 km/h (0 Bft) W 270 12,3 C 13,3 C 0,0 km/h (0 Bft)
28.09.2013 00:35 13,1 C 95 % 1016,6 hPa 0,0 l/m 0,3 km/h (0 Bft) N-NW 337 12,3 C 13,3 C 2,1 km/h (1 Bft)
28.09.2013 00:40 13,0 C 95 % 1016,6 hPa 0,0 l/m 0,5 km/h (0 Bft) W-NW 292 12,2 C 13,3 C 0,0 km/h (0 Bft)
28.09.2013 00:45 13,0 C 95 % 1016,6 hPa 0,0 l/m 0,3 km/h (0 Bft) W-NW 292 12,2 C 13,2 C 0,0 km/h (0 Bft)
28.09.2013 00:50 13,0 C 95 % 1016,6 hPa 0,0 l/m 0,0 km/h (0 Bft) N-NW 337 12,2 C 13,3 C 0,0 km/h (0 Bft)
28.09.2013 00:55 13,0 C 95 % 1016,6 hPa 0,0 l/m 0,0 km/h (0 Bft) N-NW 337 12,2 C 13,3 C 0,0 km/h (0 Bft)
28.09.2013 01:00 13,0 C 95 % 1016,6 hPa 0,0 l/m 0,0 km/h (0 Bft) N 360 12,2 C 13,3 C 0,0 km/h (0 Bft)
28.09.2013 01:05 13,0 C 95 % 1016,6 hPa 0,0 l/m 0,5 km/h (0 Bft) N-NW 337 12,2 C 13,3 C 2,4 km/h (1 Bft)
28.09.2013 01:10 13,0 C 95 % 1016,6 hPa 0,0 l/m 0,6 km/h (0 Bft) N 360 12,2 C 13,3 C 2,1 km/h (1 Bft)
28.09.2013 01:15 13,0 C 95 % 1016,6 hPa 0,0 l/m 0,5 km/h (0 Bft) NW 315 12,2 C 13,3 C 0,0 km/h (0 Bft)
28.09.2013 01:20 13,0 C 95 % 1016,6 hPa 0,0 l/m 0,2 km/h (0 Bft) W 270 12,2 C 13,3 C 0,0 km/h (0 Bft)
28.09.2013 01:25 13,0 C 95 % 1016,3 hPa 0,0 l/m 0,5 km/h (0 Bft) N-NW 337 12,2 C 13,3 C 0,0 km/h (0 Bft)
28.09.2013 01:30 13,0 C 95 % 1016,3 hPa 0,0 l/m 0,5 km/h (0 Bft) N-NO 22 12,2 C 13,3 C 2,1 km/h (1 Bft)
28.09.2013 01:35 13,0 C 95 % 1016,3 hPa 0,0 l/m 0,2 km/h (0 Bft) N-NW 337 12,2 C 13,3 C 0,0 km/h (0 Bft)
28.09.2013 01:40 12,9 C 96 % 1016,3 hPa 0,0 l/m 0,8 km/h (0 Bft) N-NW 337 12,3 C 13,3 C 4,7 km/h (1 Bft)
28.09.2013 01:45 12,9 C 96 % 1016,3 hPa 0,0 l/m 1,4 km/h (1 Bft) W-NW 292 12,3 C 13,2 C 5,1 km/h (1 Bft)
28.09.2013 01:50 12,9 C 96 % 1016,3 hPa 0,0 l/m 1,4 km/h (1 Bft) N 360 12,3 C 13,2 C 0,0 km/h (0 Bft)
28.09.2013 01:55 12,9 C 96 % 1016,3 hPa 0,0 l/m 0,8 km/h (0 Bft) NW 315 12,3 C 13,2 C 3,7 km/h (1 Bft)
28.09.2013 02:00 12,9 C 96 % 1016,3 hPa 0,0 l/m 1,0 km/h (0 Bft) NW 315 12,3 C 13,2 C 4,7 km/h (1 Bft)
28.09.2013 02:05 12,9 C 96 % 1016,2 hPa 0,0 l/m 1,6 km/h (1 Bft) N-NW 337 12,3 C 13,2 C 1,8 km/h (1 Bft)
28.09.2013 02:10 12,9 C 96 % 1016,2 hPa 0,0 l/m 1,6 km/h (1 Bft) N 360 12,3 C 13,1 C 2,9 km/h (1 Bft)
28.09.2013 02:15 12,8 C 96 % 1016,2 hPa 0,0 l/m 1,8 km/h (1 Bft) N-NW 337 12,2 C 13,1 C 5,8 km/h (2 Bft)
28.09.2013 02:20 12,7 C 96 % 1016,2 hPa 0,0 l/m 2,1 km/h (1 Bft) N 360 12,1 C 13,1 C 2,9 km/h (1 Bft)
28.09.2013 02:25 12,6 C 96 % 1016,2 hPa 0,0 l/m 1,8 km/h (1 Bft) NW 315 12,0 C 13,0 C 2,7 km/h (1 Bft)
28.09.2013 02:30 12,5 C 96 % 1016,2 hPa 0,0 l/m 1,4 km/h (1 Bft) W-SW 247 11,9 C 12,9 C 0,0 km/h (0 Bft)
28.09.2013 02:35 12,5 C 96 % 1016,2 hPa 0,0 l/m 1,8 km/h (1 Bft) N-NW 337 11,9 C 12,8 C 0,0 km/h (0 Bft)
28.09.2013 02:40 12,5 C 96 % 1016,2 hPa 0,0 l/m 1,4 km/h (1 Bft) N-NW 337 11,9 C 12,8 C 0,0 km/h (0 Bft)
28.09.2013 02:45 12,5 C 96 % 1016,1 hPa 0,0 l/m 0,8 km/h (0 Bft) W 270 11,9 C 12,8 C 2,3 km/h (1 Bft)
28.09.2013 02:50 12,5 C 96 % 1016,1 hPa 0,0 l/m 1,0 km/h (0 Bft) W-NW 292 11,9 C 12,7 C 3,4 km/h (1 Bft)
28.09.2013 02:55 12,5 C 96 % 1016,1 hPa 0,0 l/m 1,3 km/h (1 Bft) N-NW 337 11,9 C 12,7 C 2,1 km/h (1 Bft)
28.09.2013 03:00 12,4 C 96 % 1016,1 hPa 0,0 l/m 0,8 km/h (0 Bft) N 360 11,8 C 12,7 C 2,1 km/h (1 Bft)
28.09.2013 03:05 12,4 C 96 % 1015,9 hPa 0,0 l/m 1,1 km/h (1 Bft) W-NW 292 11,8 C 12,6 C 2,4 km/h (1 Bft)
28.09.2013 03:10 12,4 C 96 % 1015,9 hPa 0,0 l/m 1,0 km/h (0 Bft) N 360 11,8 C 12,6 C 0,0 km/h (0 Bft)
28.09.2013 03:15 12,4 C 96 % 1015,9 hPa 0,0 l/m 0,8 km/h (0 Bft) W-NW 292 11,8 C 12,6 C 0,0 km/h (0 Bft)
28.09.2013 03:20 12,4 C 96 % 1015,9 hPa 0,0 l/m 0,6 km/h (0 Bft) W-SW 247 11,8 C 12,6 C 0,0 km/h (0 Bft)
28.09.2013 03:25 12,4 C 96 % 1015,9 hPa 0,0 l/m 0,8 km/h (0 Bft) W-NW 292 11,8 C 12,6 C 1,8 km/h (1 Bft)
28.09.2013 03:30 12,4 C 96 % 1015,9 hPa 0,0 l/m 1,1 km/h (1 Bft) N 360 11,8 C 12,6 C 2,3 km/h (1 Bft)
28.09.2013 03:35 12,4 C 96 % 1015,9 hPa 0,0 l/m 0,3 km/h (0 Bft) W-SW 247 11,8 C 12,6 C 0,0 km/h (0 Bft)
28.09.2013 03:40 12,4 C 96 % 1015,9 hPa 0,0 l/m 0,3 km/h (0 Bft) W-NW 292 11,8 C 12,6 C 0,0 km/h (0 Bft)
28.09.2013 03:45 12,4 C 96 % 1015,8 hPa 0,0 l/m 0,3 km/h (0 Bft) N 360 11,8 C 12,6 C 0,0 km/h (0 Bft)
28.09.2013 03:50 12,3 C 96 % 1015,8 hPa 0,0 l/m 0,5 km/h (0 Bft) W-NW 292 11,7 C 12,6 C 0,0 km/h (0 Bft)
28.09.2013 03:55 12,3 C 96 % 1015,8 hPa 0,0 l/m 0,6 km/h (0 Bft) N-NW 337 11,7 C 12,5 C 0,0 km/h (0 Bft)
28.09.2013 04:00 12,3 C 96 % 1015,8 hPa 0,0 l/m 0,5 km/h (0 Bft) N-NW 337 11,7 C 12,5 C 0,0 km/h (0 Bft)
28.09.2013 04:05 12,3 C 96 % 1015,6 hPa 0,0 l/m 0,2 km/h (0 Bft) W-NW 292 11,7 C 12,5 C 0,0 km/h (0 Bft)
28.09.2013 04:10 12,3 C 96 % 1015,6 hPa 0,0 l/m 0,2 km/h (0 Bft) N-NW 337 11,7 C 12,5 C 0,0 km/h (0 Bft)
28.09.2013 04:15 12,3 C 96 % 1015,6 hPa 0,0 l/m 0,6 km/h (0 Bft) N 360 11,7 C 12,5 C 0,0 km/h (0 Bft)
28.09.2013 04:20 12,3 C 96 % 1015,6 hPa 0,0 l/m 0,5 km/h (0 Bft) N-NW 337 11,7 C 12,5 C 0,0 km/h (0 Bft)
28.09.2013 04:25 12,3 C 96 % 1015,5 hPa 0,0 l/m 0,8 km/h (0 Bft) N-NW 337 11,7 C 12,5 C 2,9 km/h (1 Bft)
28.09.2013 04:30 12,3 C 96 % 1015,5 hPa 0,0 l/m 1,1 km/h (1 Bft) N 360 11,7 C 12,5 C 2,3 km/h (1 Bft)
28.09.2013 04:35 12,3 C 96 % 1015,5 hPa 0,0 l/m 0,8 km/h (0 Bft) W-NW 292 11,7 C 12,5 C 1,8 km/h (1 Bft)
28.09.2013 04:40 12,3 C 96 % 1015,5 hPa 0,0 l/m 0,6 km/h (0 Bft) N-NW 337 11,7 C 12,5 C 0,0 km/h (0 Bft)
28.09.2013 04:45 12,3 C 96 % 1015,4 hPa 0,0 l/m 1,0 km/h (0 Bft) N-NW 337 11,7 C 12,5 C 2,1 km/h (1 Bft)
28.09.2013 04:50 12,3 C 96 % 1015,4 hPa 0,0 l/m 0,5 km/h (0 Bft) W-NW 292 11,7 C 12,5 C 0,0 km/h (0 Bft)
28.09.2013 04:55 12,3 C 96 % 1015,4 hPa 0,0 l/m 0,3 km/h (0 Bft) N 360 11,7 C 12,5 C 0,0 km/h (0 Bft)
28.09.2013 05:00 12,3 C 96 % 1015,4 hPa 0,0 l/m 0,2 km/h (0 Bft) W-NW 292 11,7 C 12,5 C 2,1 km/h (1 Bft)
28.09.2013 05:05 12,2 C 96 % 1015,3 hPa 0,0 l/m 0,5 km/h (0 Bft) N-NW 337 11,6 C 12,5 C 0,0 km/h (0 Bft)
28.09.2013 05:10 12,2 C 96 % 1015,3 hPa 0,0 l/m 0,5 km/h (0 Bft) N 360 11,6 C 12,5 C 0,0 km/h (0 Bft)
28.09.2013 05:15 12,2 C 96 % 1015,3 hPa 0,0 l/m 0,2 km/h (0 Bft) W 270 11,6 C 12,5 C 1,8 km/h (1 Bft)
28.09.2013 05:20 12,2 C 96 % 1015,3 hPa 0,0 l/m 0,2 km/h (0 Bft) W 270 11,6 C 12,5 C 0,0 km/h (0 Bft)
28.09.2013 05:25 12,2 C 96 % 1015,2 hPa 0,0 l/m 0,2 km/h (0 Bft) N 360 11,6 C 12,4 C 0,0 km/h (0 Bft)
28.09.2013 05:30 12,2 C 96 % 1015,2 hPa 0,0 l/m 0,3 km/h (0 Bft) N-NW 337 11,6 C 12,4 C 2,3 km/h (1 Bft)
28.09.2013 05:35 12,1 C 96 % 1015,2 hPa 0,0 l/m 0,3 km/h (0 Bft) W-NW 292 11,5 C 12,3 C 0,0 km/h (0 Bft)
28.09.2013 05:40 12,1 C 96 % 1015,2 hPa 0,0 l/m 0,2 km/h (0 Bft) N-NW 337 11,5 C 12,3 C 0,0 km/h (0 Bft)
28.09.2013 05:45 12,0 C 96 % 1015,2 hPa 0,0 l/m 0,0 km/h (0 Bft) N-NO 22 11,4 C 12,3 C 0,0 km/h (0 Bft)
28.09.2013 05:50 11,9 C 96 % 1015,2 hPa 0,0 l/m 0,0 km/h (0 Bft) N 360 11,3 C 12,3 C 0,0 km/h (0 Bft)
28.09.2013 05:55 11,8 C 96 % 1015,2 hPa 0,0 l/m 0,2 km/h (0 Bft) N 360 11,2 C 12,1 C 0,0 km/h (0 Bft)
28.09.2013 06:00 11,8 C 96 % 1015,2 hPa 0,0 l/m 0,2 km/h (0 Bft) NO 45 11,2 C 12,1 C 0,0 km/h (0 Bft)
28.09.2013 06:05 11,7 C 96 % 1015,0 hPa 0,0 l/m 0,0 km/h (0 Bft) NO 45 11,1 C 11,9 C 0,0 km/h (0 Bft)
28.09.2013 06:10 11,4 C 96 % 1015,0 hPa 0,0 l/m 0,0 km/h (0 Bft) N-NO 22 10,8 C 11,8 C 0,0 km/h (0 Bft)
28.09.2013 06:15 11,4 C 96 % 1015,0 hPa 0,0 l/m 0,0 km/h (0 Bft) O-NO 67 10,8 C 11,6 C 0,0 km/h (0 Bft)
28.09.2013 06:20 11,5 C 96 % 1015,0 hPa 0,0 l/m 0,0 km/h (0 Bft) NO 45 10,9 C 11,6 C 0,0 km/h (0 Bft)
28.09.2013 06:25 11,5 C 96 % 1015,0 hPa 0,0 l/m 0,0 km/h (0 Bft) W 270 10,9 C 11,7 C 0,0 km/h (0 Bft)
28.09.2013 06:30 11,5 C 96 % 1015,0 hPa 0,0 l/m 0,0 km/h (0 Bft) W 270 10,9 C 11,8 C 0,0 km/h (0 Bft)
28.09.2013 06:35 11,6 C 96 % 1015,0 hPa 0,0 l/m 0,0 km/h (0 Bft) N 360 11,0 C 11,8 C 0,0 km/h (0 Bft)
28.09.2013 06:40 11,6 C 96 % 1015,0 hPa 0,0 l/m 0,0 km/h (0 Bft) NO 45 11,0 C 11,8 C 1,6 km/h (1 Bft)
28.09.2013 06:45 11,6 C 96 % 1014,9 hPa 0,0 l/m 0,0 km/h (0 Bft) N-NO 22 11,0 C 11,8 C 0,0 km/h (0 Bft)
28.09.2013 06:50 11,5 C 96 % 1014,9 hPa 0,0 l/m 0,3 km/h (0 Bft) N 360 10,9 C 11,8 C 1,8 km/h (1 Bft)
28.09.2013 06:55 11,4 C 96 % 1014,9 hPa 0,0 l/m 0,3 km/h (0 Bft) NO 45 10,8 C 11,7 C 0,0 km/h (0 Bft)
28.09.2013 07:00 11,4 C 96 % 1014,9 hPa 0,0 l/m 0,2 km/h (0 Bft) NO 45 10,8 C 11,7 C 0,0 km/h (0 Bft)
28.09.2013 07:05 11,4 C 96 % 1015,1 hPa 0,0 l/m 0,0 km/h (0 Bft) N 360 10,8 C 11,7 C 0,0 km/h (0 Bft)
28.09.2013 07:10 11,5 C 96 % 1015,1 hPa 0,0 l/m 0,2 km/h (0 Bft) N-NW 337 10,9 C 11,7 C 2,3 km/h (1 Bft)
28.09.2013 07:15 11,6 C 96 % 1015,1 hPa 0,0 l/m 0,2 km/h (0 Bft) N-NW 337 11,0 C 11,8 C 0,0 km/h (0 Bft)
28.09.2013 07:20 11,6 C 96 % 1015,1 hPa 0,0 l/m 0,0 km/h (0 Bft) W 270 11,0 C 11,8 C 0,0 km/h (0 Bft)
28.09.2013 07:25 11,7 C 96 % 1014,9 hPa 0,0 l/m 0,0 km/h (0 Bft) O-NO 67 11,1 C 11,9 C 0,0 km/h (0 Bft)
28.09.2013 07:30 11,7 C 96 % 1014,9 hPa 0,0 l/m 0,2 km/h (0 Bft) NO 45 11,1 C 11,9 C 2,4 km/h (1 Bft)
28.09.2013 07:35 11,7 C 96 % 1014,9 hPa 0,0 l/m 0,3 km/h (0 Bft) N 360 11,1 C 12,0 C 0,0 km/h (0 Bft)
28.09.2013 07:40 11,8 C 96 % 1014,9 hPa 0,0 l/m 0,5 km/h (0 Bft) N 360 11,2 C 12,1 C 0,0 km/h (0 Bft)
28.09.2013 07:45 11,8 C 96 % 1014,9 hPa 0,0 l/m 0,6 km/h (0 Bft) N 360 11,2 C 12,1 C 1,8 km/h (1 Bft)
28.09.2013 07:50 11,9 C 96 % 1014,9 hPa 0,0 l/m 0,6 km/h (0 Bft) NW 315 11,3 C 12,1 C 0,0 km/h (0 Bft)
28.09.2013 07:55 11,9 C 96 % 1014,9 hPa 0,0 l/m 1,1 km/h (1 Bft) NW 315 11,3 C 12,1 C 0,0 km/h (0 Bft)
28.09.2013 08:00 11,9 C 96 % 1014,9 hPa 0,0 l/m 1,3 km/h (1 Bft) W 270 11,3 C 12,1 C 0,0 km/h (0 Bft)
28.09.2013 08:05 11,9 C 96 % 1015,0 hPa 0,0 l/m 0,8 km/h (0 Bft) NO 45 11,3 C 12,2 C 0,0 km/h (0 Bft)
28.09.2013 08:10 12,0 C 96 % 1015,0 hPa 0,0 l/m 0,6 km/h (0 Bft) W 270 11,4 C 12,2 C 1,9 km/h (1 Bft)
28.09.2013 08:15 12,0 C 96 % 1015,0 hPa 0,0 l/m 0,6 km/h (0 Bft) O-SO 112 11,4 C 12,3 C 0,0 km/h (0 Bft)
28.09.2013 08:20 12,1 C 96 % 1015,0 hPa 0,0 l/m 0,5 km/h (0 Bft) W-NW 292 11,5 C 12,3 C 0,0 km/h (0 Bft)
28.09.2013 08:25 12,1 C 96 % 1015,0 hPa 0,0 l/m 0,3 km/h (0 Bft) W-SW 247 11,5 C 12,3 C 2,4 km/h (1 Bft)
28.09.2013 08:30 12,1 C 96 % 1015,0 hPa 0,0 l/m 0,3 km/h (0 Bft) N 360 11,5 C 12,3 C 0,0 km/h (0 Bft)
28.09.2013 08:35 12,0 C 96 % 1015,0 hPa 0,0 l/m 1,1 km/h (1 Bft) O 90 11,4 C 12,3 C 0,0 km/h (0 Bft)
28.09.2013 08:40 12,1 C 96 % 1015,0 hPa 0,0 l/m 0,8 km/h (0 Bft) N 360 11,5 C 12,3 C 0,0 km/h (0 Bft)
28.09.2013 08:45 12,2 C 96 % 1015,0 hPa 0,0 l/m 0,3 km/h (0 Bft) NW 315 11,6 C 12,4 C 0,0 km/h (0 Bft)
28.09.2013 08:50 12,3 C 96 % 1015,0 hPa 0,0 l/m 0,3 km/h (0 Bft) W 270 11,7 C 12,5 C 0,0 km/h (0 Bft)
28.09.2013 08:55 12,4 C 96 % 1015,0 hPa 0,0 l/m 0,2 km/h (0 Bft) N-NO 22 11,8 C 12,7 C 0,0 km/h (0 Bft)
28.09.2013 09:00 12,5 C 96 % 1015,0 hPa 0,0 l/m 0,8 km/h (0 Bft) N 360 11,9 C 12,8 C 1,8 km/h (1 Bft)
28.09.2013 09:05 12,6 C 96 % 1015,0 hPa 0,0 l/m 0,8 km/h (0 Bft) W-NW 292 12,0 C 12,8 C 0,0 km/h (0 Bft)
28.09.2013 09:10 12,8 C 96 % 1015,0 hPa 0,0 l/m 0,5 km/h (0 Bft) W-NW 292 12,2 C 13,0 C 0,0 km/h (0 Bft)
28.09.2013 09:15 12,8 C 96 % 1015,0 hPa 0,0 l/m 1,1 km/h (1 Bft) NO 45 12,2 C 13,2 C 0,0 km/h (0 Bft)
28.09.2013 09:20 12,7 C 96 % 1015,0 hPa 0,0 l/m 1,4 km/h (1 Bft) NW 315 12,1 C 13,2 C 2,1 km/h (1 Bft)
28.09.2013 09:25 12,9 C 96 % 1015,1 hPa 0,0 l/m 1,4 km/h (1 Bft) N-NW 337 12,3 C 13,4 C 2,6 km/h (1 Bft)
28.09.2013 09:30 13,2 C 95 % 1015,1 hPa 0,0 l/m 1,4 km/h (1 Bft) N-NO 22 12,4 C 13,7 C 0,0 km/h (0 Bft)
28.09.2013 09:35 13,2 C 95 % 1015,1 hPa 0,0 l/m 1,1 km/h (1 Bft) N 360 12,4 C 14,0 C 1,9 km/h (1 Bft)
28.09.2013 09:40 13,1 C 95 % 1015,1 hPa 0,0 l/m 1,4 km/h (1 Bft) N 360 12,3 C 14,0 C 3,4 km/h (1 Bft)
28.09.2013 09:45 13,4 C 95 % 1015,2 hPa 0,0 l/m 1,6 km/h (1 Bft) W-NW 292 12,6 C 14,2 C 2,7 km/h (1 Bft)
28.09.2013 09:50 13,3 C 95 % 1015,2 hPa 0,0 l/m 1,8 km/h (1 Bft) N-NW 337 12,5 C 14,2 C 2,4 km/h (1 Bft)
28.09.2013 09:55 13,4 C 95 % 1015,2 hPa 0,0 l/m 1,3 km/h (1 Bft) N 360 12,6 C 14,1 C 0,0 km/h (0 Bft)
28.09.2013 10:00 13,3 C 95 % 1015,2 hPa 0,0 l/m 1,1 km/h (1 Bft) NO 45 12,5 C 14,2 C 0,0 km/h (0 Bft)
28.09.2013 10:05 13,3 C 95 % 1015,4 hPa 0,0 l/m 1,0 km/h (0 Bft) SW 225 12,5 C 14,1 C 1,6 km/h (1 Bft)
28.09.2013 10:10 13,2 C 95 % 1015,4 hPa 0,0 l/m 1,0 km/h (0 Bft) N 360 12,4 C 13,9 C 4,0 km/h (1 Bft)
28.09.2013 10:15 13,4 C 95 % 1015,4 hPa 0,0 l/m 1,4 km/h (1 Bft) NO 45 12,6 C 13,9 C 6,0 km/h (2 Bft)
28.09.2013 10:20 13,4 C 95 % 1015,4 hPa 0,0 l/m 2,3 km/h (1 Bft) W-NW 292 12,6 C 13,8 C 4,2 km/h (1 Bft)
28.09.2013 10:25 13,2 C 95 % 1015,5 hPa 0,0 l/m 2,4 km/h (1 Bft) N 360 12,4 C 13,9 C 3,4 km/h (1 Bft)
28.09.2013 10:30 13,3 C 95 % 1015,5 hPa 0,0 l/m 1,9 km/h (1 Bft) W 270 12,5 C 13,9 C 3,2 km/h (1 Bft)
28.09.2013 10:35 13,1 C 94 % 1015,5 hPa 0,0 l/m 2,7 km/h (1 Bft) NW 315 12,2 C 13,9 C 2,7 km/h (1 Bft)
28.09.2013 10:40 13,4 C 94 % 1015,5 hPa 0,0 l/m 2,7 km/h (1 Bft) W-NW 292 12,5 C 13,9 C 0,0 km/h (0 Bft)
28.09.2013 10:45 13,8 C 94 % 1015,3 hPa 0,0 l/m 1,3 km/h (1 Bft) N-NO 22 12,9 C 14,4 C 1,9 km/h (1 Bft)
28.09.2013 10:50 13,7 C 94 % 1015,3 hPa 0,0 l/m 1,1 km/h (1 Bft) N 360 12,8 C 14,7 C 2,6 km/h (1 Bft)
28.09.2013 10:55 13,6 C 94 % 1015,3 hPa 0,0 l/m 1,3 km/h (1 Bft) N-NW 337 12,7 C 14,8 C 3,4 km/h (1 Bft)
28.09.2013 11:00 13,6 C 94 % 1015,3 hPa 0,0 l/m 1,1 km/h (1 Bft) S-SW 202 12,7 C 14,8 C 1,6 km/h (1 Bft)
28.09.2013 11:05 14,0 C 94 % 1015,3 hPa 0,0 l/m 1,4 km/h (1 Bft) W-NW 292 13,0 C 14,9 C 3,5 km/h (1 Bft)
28.09.2013 11:10 14,1 C 94 % 1015,3 hPa 0,0 l/m 1,8 km/h (1 Bft) N-NW 337 13,1 C 15,0 C 3,9 km/h (1 Bft)
28.09.2013 11:15 14,2 C 94 % 1015,3 hPa 0,0 l/m 2,3 km/h (1 Bft) NO 45 13,2 C 15,1 C 4,7 km/h (1 Bft)
28.09.2013 11:20 14,3 C 94 % 1015,3 hPa 0,0 l/m 1,9 km/h (1 Bft) N 360 13,3 C 15,2 C 2,6 km/h (1 Bft)
28.09.2013 11:25 14,4 C 93 % 1015,2 hPa 0,0 l/m 1,1 km/h (1 Bft) N 360 13,3 C 15,5 C 2,4 km/h (1 Bft)
28.09.2013 11:30 14,1 C 93 % 1015,2 hPa 0,0 l/m 1,1 km/h (1 Bft) N 360 13,0 C 15,5 C 2,1 km/h (1 Bft)
28.09.2013 11:35 14,2 C 93 % 1015,2 hPa 0,0 l/m 1,4 km/h (1 Bft) S-SO 157 13,1 C 15,4 C 1,6 km/h (1 Bft)
28.09.2013 11:40 14,6 C 93 % 1015,2 hPa 0,7 l/m 1,3 km/h (1 Bft) W-SW 247 13,5 C 15,5 C 2,6 km/h (1 Bft)
28.09.2013 11:45 14,4 C 92 % 1015,1 hPa 0,0 l/m 2,1 km/h (1 Bft) NW 315 13,1 C 15,5 C 2,4 km/h (1 Bft)
28.09.2013 11:50 14,6 C 92 % 1015,1 hPa 0,0 l/m 3,2 km/h (1 Bft) N-NW 337 13,3 C 15,5 C 4,0 km/h (1 Bft)
28.09.2013 11:55 14,7 C 92 % 1015,1 hPa 0,0 l/m 2,7 km/h (1 Bft) W-NW 292 13,4 C 15,6 C 6,9 km/h (2 Bft)
28.09.2013 12:00 14,6 C 92 % 1015,1 hPa 0,0 l/m 2,3 km/h (1 Bft) NW 315 13,3 C 15,5 C 6,0 km/h (2 Bft)
28.09.2013 12:05 14,8 C 91 % 1015,0 hPa 0,0 l/m 2,7 km/h (1 Bft) NW 315 13,3 C 15,5 C 5,8 km/h (2 Bft)
28.09.2013 12:10 14,8 C 91 % 1015,0 hPa 0,0 l/m 3,4 km/h (1 Bft) W-NW 292 13,3 C 15,7 C 5,5 km/h (1 Bft)
28.09.2013 12:15 14,8 C 91 % 1015,0 hPa 0,0 l/m 3,4 km/h (1 Bft) W-NW 292 13,3 C 15,5 C 4,3 km/h (1 Bft)
28.09.2013 12:20 14,7 C 90 % 1015,0 hPa 0,0 l/m 2,7 km/h (1 Bft) NW 315 13,1 C 15,5 C 4,0 km/h (1 Bft)
28.09.2013 12:25 14,7 C 90 % 1014,9 hPa 0,0 l/m 2,9 km/h (1 Bft) W-NW 292 13,1 C 15,5 C 7,6 km/h (2 Bft)
28.09.2013 12:30 14,8 C 89 % 1014,9 hPa 0,0 l/m 3,1 km/h (1 Bft) W-SW 247 13,0 C 15,5 C 2,1 km/h (1 Bft)
28.09.2013 12:35 14,9 C 89 % 1014,9 hPa 0,0 l/m 2,9 km/h (1 Bft) W-NW 292 13,1 C 15,7 C 3,4 km/h (1 Bft)
28.09.2013 12:40 14,8 C 89 % 1014,9 hPa 0,0 l/m 3,1 km/h (1 Bft) N-NW 337 13,0 C 15,8 C 5,8 km/h (2 Bft)
28.09.2013 12:45 15,2 C 88 % 1014,9 hPa 0,0 l/m 3,7 km/h (1 Bft) W-NW 292 13,2 C 16,1 C 3,1 km/h (1 Bft)
28.09.2013 12:50 15,3 C 88 % 1014,9 hPa 0,0 l/m 2,6 km/h (1 Bft) O-NO 67 13,3 C 16,3 C 2,3 km/h (1 Bft)
28.09.2013 12:55 15,4 C 87 % 1014,9 hPa 0,0 l/m 1,4 km/h (1 Bft) W 270 13,2 C 16,6 C 7,7 km/h (2 Bft)
28.09.2013 13:00 15,6 C 87 % 1014,9 hPa 0,0 l/m 1,6 km/h (1 Bft) N-NO 22 13,4 C 16,8 C 1,6 km/h (1 Bft)
28.09.2013 13:05 15,5 C 87 % 1015,1 hPa 0,0 l/m 1,6 km/h (1 Bft) NW 315 13,3 C 16,9 C 0,0 km/h (0 Bft)
28.09.2013 13:10 15,3 C 86 % 1015,1 hPa 0,0 l/m 1,4 km/h (1 Bft) W-NW 292 13,0 C 16,8 C 4,2 km/h (1 Bft)
28.09.2013 13:15 15,6 C 86 % 1015,1 hPa 0,0 l/m 1,6 km/h (1 Bft) N 360 13,3 C 16,8 C 3,9 km/h (1 Bft)
28.09.2013 13:20 15,5 C 85 % 1015,1 hPa 0,0 l/m 2,3 km/h (1 Bft) N-NW 337 13,0 C 16,8 C 4,3 km/h (1 Bft)
28.09.2013 13:25 15,2 C 84 % 1015,1 hPa 0,0 l/m 2,9 km/h (1 Bft) S 180 12,5 C 16,5 C 0,0 km/h (0 Bft)
28.09.2013 13:30 15,1 C 84 % 1015,1 hPa 0,0 l/m 3,4 km/h (1 Bft) W-NW 292 12,4 C 16,3 C 5,3 km/h (1 Bft)
28.09.2013 13:35 15,0 C 84 % 1015,1 hPa 0,0 l/m 3,4 km/h (1 Bft) W 270 12,3 C 16,1 C 9,3 km/h (2 Bft)
28.09.2013 13:40 15,1 C 85 % 1015,1 hPa 0,0 l/m 3,1 km/h (1 Bft) N 360 12,6 C 15,9 C 4,2 km/h (1 Bft)
28.09.2013 13:45 14,9 C 85 % 1014,8 hPa 0,0 l/m 3,1 km/h (1 Bft) N-NW 337 12,4 C 16,0 C 5,6 km/h (1 Bft)
28.09.2013 13:50 15,0 C 85 % 1014,8 hPa 0,0 l/m 2,9 km/h (1 Bft) W-NW 292 12,5 C 15,8 C 3,7 km/h (1 Bft)
28.09.2013 13:55 14,9 C 84 % 1014,8 hPa 0,0 l/m 3,1 km/h (1 Bft) W-NW 292 12,2 C 15,9 C 3,2 km/h (1 Bft)
28.09.2013 14:00 15,0 C 85 % 1014,8 hPa 0,0 l/m 2,9 km/h (1 Bft) N-NW 337 12,5 C 16,0 C 5,0 km/h (1 Bft)
28.09.2013 14:05 15,0 C 84 % 1014,2 hPa 0,0 l/m 2,1 km/h (1 Bft) W 270 12,3 C 16,0 C 0,0 km/h (0 Bft)
28.09.2013 14:10 15,0 C 84 % 1014,2 hPa 0,0 l/m 1,8 km/h (1 Bft) W-SW 247 12,3 C 16,2 C 3,2 km/h (1 Bft)
28.09.2013 14:15 15,1 C 85 % 1014,2 hPa 0,0 l/m 2,3 km/h (1 Bft) N 360 12,6 C 16,0 C 1,8 km/h (1 Bft)
28.09.2013 14:20 15,0 C 84 % 1014,2 hPa 0,0 l/m 3,5 km/h (1 Bft) N-NW 337 12,3 C 16,0 C 6,6 km/h (2 Bft)
28.09.2013 14:25 15,2 C 84 % 1014,6 hPa 0,0 l/m 3,1 km/h (1 Bft) W 270 12,5 C 16,0 C 4,0 km/h (1 Bft)
28.09.2013 14:30 15,2 C 84 % 1014,6 hPa 0,0 l/m 2,9 km/h (1 Bft) W-NW 292 12,5 C 16,0 C 3,7 km/h (1 Bft)
28.09.2013 14:35 15,1 C 83 % 1014,6 hPa 0,0 l/m 2,6 km/h (1 Bft) W 270 12,2 C 16,2 C 4,0 km/h (1 Bft)
28.09.2013 14:40 15,1 C 84 % 1014,6 hPa 0,0 l/m 2,9 km/h (1 Bft) W-NW 292 12,4 C 16,1 C 4,8 km/h (1 Bft)
28.09.2013 14:45 15,2 C 84 % 1014,4 hPa 0,0 l/m 3,2 km/h (1 Bft) W-NW 292 12,5 C 16,0 C 2,3 km/h (1 Bft)
28.09.2013 14:50 15,1 C 84 % 1014,4 hPa 0,0 l/m 2,6 km/h (1 Bft) W-NW 292 12,4 C 16,0 C 3,1 km/h (1 Bft)
28.09.2013 14:55 14,7 C 84 % 1014,4 hPa 0,0 l/m 2,4 km/h (1 Bft) W 270 12,0 C 15,7 C 1,8 km/h (1 Bft)
28.09.2013 15:00 14,9 C 84 % 1014,4 hPa 0,0 l/m 2,6 km/h (1 Bft) N-NO 22 12,2 C 15,6 C 2,1 km/h (1 Bft)
28.09.2013 15:05 14,6 C 84 % 1014,4 hPa 0,0 l/m 1,6 km/h (1 Bft) W 270 11,9 C 15,6 C 2,7 km/h (1 Bft)
28.09.2013 15:10 14,5 C 85 % 1014,4 hPa 0,0 l/m 1,9 km/h (1 Bft) NW 315 12,0 C 15,6 C 3,1 km/h (1 Bft)
28.09.2013 15:15 14,5 C 85 % 1014,4 hPa 0,0 l/m 2,3 km/h (1 Bft) N-NW 337 12,0 C 15,4 C 2,9 km/h (1 Bft)
28.09.2013 15:20 14,4 C 85 % 1014,4 hPa 0,0 l/m 1,8 km/h (1 Bft) W-NW 292 11,9 C 15,4 C 3,5 km/h (1 Bft)
28.09.2013 15:25 14,5 C 86 % 1014,2 hPa 0,0 l/m 2,1 km/h (1 Bft) W 270 12,2 C 15,3 C 2,6 km/h (1 Bft)
28.09.2013 15:30 14,3 C 86 % 1014,2 hPa 0,0 l/m 2,7 km/h (1 Bft) N-NO 22 12,0 C 15,1 C 3,9 km/h (1 Bft)
28.09.2013 15:35 14,2 C 86 % 1014,2 hPa 0,0 l/m 3,1 km/h (1 Bft) O-SO 112 11,9 C 15,0 C 2,7 km/h (1 Bft)
28.09.2013 15:40 14,2 C 86 % 1014,2 hPa 0,0 l/m 2,9 km/h (1 Bft) W-NW 292 11,9 C 15,0 C 4,5 km/h (1 Bft)
28.09.2013 15:45 14,2 C 86 % 1014,2 hPa 0,0 l/m 2,6 km/h (1 Bft) W-NW 292 11,9 C 14,9 C 3,4 km/h (1 Bft)
28.09.2013 15:50 14,2 C 86 % 1014,2 hPa 0,0 l/m 2,9 km/h (1 Bft) N-NW 337 11,9 C 14,9 C 3,2 km/h (1 Bft)
28.09.2013 15:55 14,2 C 87 % 1014,2 hPa 0,0 l/m 2,7 km/h (1 Bft) S-SW 202 12,1 C 14,7 C 0,0 km/h (0 Bft)
28.09.2013 16:00 14,1 C 87 % 1014,2 hPa 0,0 l/m 2,3 km/h (1 Bft) W-NW 292 12,0 C 14,7 C 3,9 km/h (1 Bft)
28.09.2013 16:05 14,0 C 87 % 1014,2 hPa 0,0 l/m 2,4 km/h (1 Bft) W 270 11,9 C 14,7 C 1,6 km/h (1 Bft)
28.09.2013 16:10 14,0 C 87 % 1014,2 hPa 0,0 l/m 2,4 km/h (1 Bft) NW 315 11,9 C 14,7 C 4,5 km/h (1 Bft)
28.09.2013 16:15 13,8 C 87 % 1014,2 hPa 0,0 l/m 1,4 km/h (1 Bft) N-NW 337 11,7 C 14,4 C 2,3 km/h (1 Bft)
28.09.2013 16:20 13,7 C 87 % 1014,2 hPa 0,0 l/m 2,6 km/h (1 Bft) NW 315 11,6 C 14,4 C 3,9 km/h (1 Bft)
28.09.2013 16:25 14,0 C 87 % 1014,1 hPa 0,0 l/m 3,5 km/h (1 Bft) N 360 11,9 C 14,4 C 5,8 km/h (2 Bft)
28.09.2013 16:30 13,9 C 87 % 1014,1 hPa 0,0 l/m 3,5 km/h (1 Bft) W-NW 292 11,8 C 14,5 C 6,4 km/h (2 Bft)
28.09.2013 16:35 13,6 C 88 % 1014,1 hPa 0,0 l/m 2,3 km/h (1 Bft) O 90 11,6 C 14,5 C 0,0 km/h (0 Bft)
28.09.2013 16:40 13,5 C 88 % 1014,1 hPa 0,0 l/m 1,9 km/h (1 Bft) W-NW 292 11,6 C 14,4 C 2,4 km/h (1 Bft)
28.09.2013 16:45 13,3 C 88 % 1014,0 hPa 0,0 l/m 2,9 km/h (1 Bft) W-NW 292 11,4 C 14,1 C 2,6 km/h (1 Bft)
28.09.2013 16:50 13,3 C 88 % 1014,0 hPa 0,0 l/m 3,2 km/h (1 Bft) N-NW 337 11,4 C 13,9 C 0,0 km/h (0 Bft)
28.09.2013 16:55 13,2 C 89 % 1014,0 hPa 0,0 l/m 2,3 km/h (1 Bft) W-NW 292 11,4 C 13,7 C 1,9 km/h (1 Bft)
28.09.2013 17:00 13,2 C 89 % 1014,0 hPa 0,0 l/m 1,6 km/h (1 Bft) O 90 11,4 C 13,7 C 0,0 km/h (0 Bft)
28.09.2013 17:05 13,2 C 89 % 1014,0 hPa 0,0 l/m 1,9 km/h (1 Bft) NO 45 11,4 C 13,7 C 0,0 km/h (0 Bft)
28.09.2013 17:10 13,2 C 89 % 1014,0 hPa 0,0 l/m 2,6 km/h (1 Bft) W 270 11,4 C 13,6 C 3,2 km/h (1 Bft)
28.09.2013 17:15 13,0 C 89 % 1014,0 hPa 0,0 l/m 3,1 km/h (1 Bft) NW 315 11,2 C 13,5 C 5,0 km/h (1 Bft)
28.09.2013 17:20 13,0 C 90 % 1014,0 hPa 0,0 l/m 2,7 km/h (1 Bft) W-NW 292 11,4 C 13,4 C 5,5 km/h (1 Bft)
28.09.2013 17:25 12,9 C 91 % 1013,9 hPa 0,0 l/m 1,9 km/h (1 Bft) W-NW 292 11,5 C 13,3 C 1,6 km/h (1 Bft)
28.09.2013 17:30 12,9 C 91 % 1013,9 hPa 0,0 l/m 2,1 km/h (1 Bft) NW 315 11,5 C 13,3 C 1,9 km/h (1 Bft)
28.09.2013 17:35 12,8 C 92 % 1013,9 hPa 0,0 l/m 2,1 km/h (1 Bft) N-NW 337 11,5 C 13,3 C 3,7 km/h (1 Bft)
28.09.2013 17:40 12,8 C 92 % 1013,9 hPa 0,0 l/m 2,1 km/h (1 Bft) N 360 11,5 C 13,2 C 3,4 km/h (1 Bft)
28.09.2013 17:45 12,9 C 92 % 1013,8 hPa 0,0 l/m 2,3 km/h (1 Bft) N-NW 337 11,6 C 13,3 C 3,2 km/h (1 Bft)
28.09.2013 17:50 12,8 C 92 % 1013,8 hPa 0,0 l/m 2,4 km/h (1 Bft) NO 45 11,5 C 13,2 C 2,4 km/h (1 Bft)
28.09.2013 17:55 12,9 C 92 % 1013,8 hPa 0,0 l/m 2,3 km/h (1 Bft) N 360 11,6 C 13,2 C 3,9 km/h (1 Bft)
28.09.2013 18:00 12,9 C 92 % 1013,8 hPa 0,0 l/m 2,1 km/h (1 Bft) NW 315 11,6 C 13,2 C 6,3 km/h (2 Bft)
28.09.2013 18:05 12,8 C 92 % 1013,7 hPa 0,0 l/m 2,6 km/h (1 Bft) W 270 11,5 C 13,2 C 3,5 km/h (1 Bft)
28.09.2013 18:10 12,7 C 92 % 1013,7 hPa 0,0 l/m 2,7 km/h (1 Bft) N-NW 337 11,4 C 13,1 C 2,1 km/h (1 Bft)
28.09.2013 18:15 12,6 C 92 % 1013,7 hPa 0,0 l/m 2,4 km/h (1 Bft) W-NW 292 11,3 C 13,0 C 0,0 km/h (0 Bft)
28.09.2013 18:20 12,6 C 92 % 1013,7 hPa 0,0 l/m 2,4 km/h (1 Bft) W-NW 292 11,3 C 13,0 C 1,8 km/h (1 Bft)
28.09.2013 18:25 12,5 C 92 % 1013,8 hPa 0,0 l/m 2,4 km/h (1 Bft) O-NO 67 11,2 C 12,9 C 4,5 km/h (1 Bft)
28.09.2013 18:30 12,6 C 92 % 1013,8 hPa 0,0 l/m 2,7 km/h (1 Bft) W-NW 292 11,3 C 12,8 C 4,0 km/h (1 Bft)
28.09.2013 18:35 12,5 C 92 % 1013,8 hPa 0,0 l/m 2,4 km/h (1 Bft) N-NW 337 11,2 C 12,8 C 3,1 km/h (1 Bft)
28.09.2013 18:40 12,5 C 92 % 1013,8 hPa 0,0 l/m 2,4 km/h (1 Bft) W-NW 292 11,2 C 12,8 C 4,0 km/h (1 Bft)
28.09.2013 18:45 12,4 C 93 % 1013,5 hPa 0,0 l/m 2,6 km/h (1 Bft) N 360 11,3 C 12,7 C 1,6 km/h (1 Bft)
28.09.2013 18:50 12,4 C 93 % 1013,5 hPa 0,0 l/m 2,4 km/h (1 Bft) W 270 11,3 C 12,7 C 2,1 km/h (1 Bft)
28.09.2013 18:55 12,3 C 93 % 1013,5 hPa 0,0 l/m 2,4 km/h (1 Bft) W-NW 292 11,2 C 12,6 C 1,8 km/h (1 Bft)
28.09.2013 19:00 12,3 C 93 % 1013,5 hPa 0,0 l/m 2,7 km/h (1 Bft) N 360 11,2 C 12,5 C 6,0 km/h (2 Bft)
28.09.2013 19:05 12,1 C 93 % 1013,7 hPa 0,0 l/m 2,7 km/h (1 Bft) W-NW 292 11,0 C 12,5 C 3,9 km/h (1 Bft)
28.09.2013 19:10 12,1 C 93 % 1013,7 hPa 0,0 l/m 2,9 km/h (1 Bft) W 270 11,0 C 12,4 C 3,1 km/h (1 Bft)
28.09.2013 19:15 12,1 C 93 % 1013,7 hPa 0,0 l/m 3,4 km/h (1 Bft) NO 45 11,0 C 12,3 C 3,9 km/h (1 Bft)
28.09.2013 19:20 12,0 C 93 % 1013,7 hPa 0,0 l/m 2,7 km/h (1 Bft) N-NW 337 10,9 C 12,3 C 4,5 km/h (1 Bft)
28.09.2013 19:25 12,0 C 93 % 1013,7 hPa 0,0 l/m 2,7 km/h (1 Bft) N-NW 337 10,9 C 12,3 C 3,5 km/h (1 Bft)
28.09.2013 19:30 12,0 C 93 % 1013,7 hPa 0,0 l/m 2,7 km/h (1 Bft) N-NW 337 10,9 C 12,2 C 1,9 km/h (1 Bft)
28.09.2013 19:35 12,0 C 93 % 1013,7 hPa 0,0 l/m 2,9 km/h (1 Bft) N-NW 337 10,9 C 12,2 C 0,0 km/h (0 Bft)
28.09.2013 19:40 12,0 C 93 % 1013,7 hPa 0,0 l/m 2,9 km/h (1 Bft) W-NW 292 10,9 C 12,2 C 4,2 km/h (1 Bft)
28.09.2013 19:45 12,0 C 93 % 1013,6 hPa 0,0 l/m 2,6 km/h (1 Bft) N 360 10,9 C 12,2 C 9,5 km/h (2 Bft)
28.09.2013 19:50 11,9 C 94 % 1013,6 hPa 0,0 l/m 3,1 km/h (1 Bft) NW 315 11,0 C 12,2 C 4,5 km/h (1 Bft)
28.09.2013 19:55 11,9 C 94 % 1013,6 hPa 0,0 l/m 3,2 km/h (1 Bft) N 360 11,0 C 12,2 C 6,0 km/h (2 Bft)
28.09.2013 20:00 11,9 C 94 % 1013,6 hPa 0,0 l/m 3,4 km/h (1 Bft) N-NW 337 11,0 C 12,2 C 4,8 km/h (1 Bft)
28.09.2013 20:05 11,9 C 94 % 1013,3 hPa 0,0 l/m 3,7 km/h (1 Bft) N-NW 337 11,0 C 12,2 C 5,5 km/h (1 Bft)
28.09.2013 20:10 11,9 C 94 % 1013,3 hPa 0,0 l/m 3,5 km/h (1 Bft) NO 45 11,0 C 12,2 C 2,7 km/h (1 Bft)
28.09.2013 20:15 11,9 C 94 % 1013,3 hPa 0,0 l/m 3,5 km/h (1 Bft) N-NW 337 11,0 C 12,2 C 5,0 km/h (1 Bft)
28.09.2013 20:20 11,9 C 94 % 1013,3 hPa 0,0 l/m 3,2 km/h (1 Bft) N-NW 337 11,0 C 12,2 C 4,8 km/h (1 Bft)
28.09.2013 20:25 11,9 C 94 % 1013,3 hPa 0,0 l/m 2,9 km/h (1 Bft) NW 315 11,0 C 12,2 C 3,5 km/h (1 Bft)
28.09.2013 20:30 11,9 C 94 % 1013,3 hPa 0,0 l/m 2,3 km/h (1 Bft) N-NO 22 11,0 C 12,2 C 0,0 km/h (0 Bft)
28.09.2013 20:35 11,9 C 94 % 1013,3 hPa 0,0 l/m 1,8 km/h (1 Bft) W-NW 292 11,0 C 12,2 C 2,9 km/h (1 Bft)
28.09.2013 20:40 12,0 C 94 % 1013,3 hPa 0,0 l/m 1,6 km/h (1 Bft) N 360 11,1 C 12,2 C 3,4 km/h (1 Bft)
28.09.2013 20:45 11,9 C 94 % 1013,4 hPa 0,0 l/m 2,3 km/h (1 Bft) N-NW 337 11,0 C 12,2 C 5,1 km/h (1 Bft)
28.09.2013 20:50 12,0 C 94 % 1013,4 hPa 0,0 l/m 2,3 km/h (1 Bft) N-NW 337 11,1 C 12,2 C 3,7 km/h (1 Bft)
28.09.2013 20:55 11,9 C 94 % 1013,4 hPa 0,0 l/m 2,1 km/h (1 Bft) N-NW 337 11,0 C 12,2 C 3,2 km/h (1 Bft)
28.09.2013 21:00 11,9 C 94 % 1013,4 hPa 0,0 l/m 1,8 km/h (1 Bft) N 360 11,0 C 12,2 C 2,9 km/h (1 Bft)
28.09.2013 21:05 11,9 C 94 % 1013,2 hPa 0,0 l/m 2,3 km/h (1 Bft) N 360 11,0 C 12,2 C 3,5 km/h (1 Bft)
28.09.2013 21:10 11,9 C 94 % 1013,2 hPa 0,0 l/m 2,3 km/h (1 Bft) N 360 11,0 C 12,1 C 4,3 km/h (1 Bft)
28.09.2013 21:15 11,9 C 94 % 1013,2 hPa 0,0 l/m 1,4 km/h (1 Bft) N-NW 337 11,0 C 12,1 C 3,5 km/h (1 Bft)
28.09.2013 21:20 11,9 C 94 % 1013,2 hPa 0,0 l/m 1,0 km/h (0 Bft) N-NO 22 11,0 C 12,1 C 1,8 km/h (1 Bft)
28.09.2013 21:25 11,9 C 94 % 1013,1 hPa 0,0 l/m 1,4 km/h (1 Bft) N-NW 337 11,0 C 12,1 C 2,1 km/h (1 Bft)
28.09.2013 21:30 11,9 C 94 % 1013,1 hPa 0,0 l/m 1,4 km/h (1 Bft) N-NW 337 11,0 C 12,1 C 0,0 km/h (0 Bft)
28.09.2013 21:35 11,9 C 94 % 1013,1 hPa 0,0 l/m 1,1 km/h (1 Bft) N-NW 337 11,0 C 12,1 C 2,4 km/h (1 Bft)
28.09.2013 21:40 11,9 C 95 % 1013,1 hPa 0,0 l/m 1,3 km/h (1 Bft) N-NW 337 11,1 C 12,2 C 2,7 km/h (1 Bft)
28.09.2013 21:45 11,9 C 95 % 1013,1 hPa 0,0 l/m 1,3 km/h (1 Bft) N-NW 337 11,1 C 12,1 C 0,0 km/h (0 Bft)
28.09.2013 21:50 11,9 C 95 % 1013,1 hPa 0,0 l/m 1,1 km/h (1 Bft) W-NW 292 11,1 C 12,2 C 3,1 km/h (1 Bft)
28.09.2013 21:55 11,9 C 95 % 1013,1 hPa 0,0 l/m 1,4 km/h (1 Bft) W 270 11,1 C 12,1 C 2,9 km/h (1 Bft)
28.09.2013 22:00 11,8 C 95 % 1013,1 hPa 0,0 l/m 2,3 km/h (1 Bft) W-NW 292 11,0 C 12,1 C 3,2 km/h (1 Bft)
28.09.2013 22:05 11,8 C 95 % 1013,1 hPa 0,0 l/m 2,3 km/h (1 Bft) O-NO 67 11,0 C 12,1 C 3,5 km/h (1 Bft)
28.09.2013 22:10 11,8 C 95 % 1013,1 hPa 0,0 l/m 2,1 km/h (1 Bft) N-NO 22 11,0 C 12,0 C 3,5 km/h (1 Bft)
28.09.2013 22:15 11,8 C 95 % 1013,1 hPa 0,0 l/m 1,8 km/h (1 Bft) NW 315 11,0 C 12,0 C 0,0 km/h (0 Bft)
28.09.2013 22:20 11,8 C 95 % 1013,1 hPa 0,0 l/m 1,3 km/h (1 Bft) NW 315 11,0 C 12,0 C 0,0 km/h (0 Bft)
28.09.2013 22:25 11,8 C 95 % 1012,9 hPa 0,0 l/m 0,5 km/h (0 Bft) S-SW 202 11,0 C 12,0 C 0,0 km/h (0 Bft)
28.09.2013 22:30 11,8 C 95 % 1012,9 hPa 0,0 l/m 0,2 km/h (0 Bft) W 270 11,0 C 12,0 C 0,0 km/h (0 Bft)
28.09.2013 22:35 11,8 C 95 % 1012,9 hPa 0,0 l/m 0,5 km/h (0 Bft) W 270 11,0 C 12,1 C 1,6 km/h (1 Bft)
28.09.2013 22:40 11,8 C 95 % 1012,9 hPa 0,0 l/m 1,1 km/h (1 Bft) N 360 11,0 C 12,1 C 3,1 km/h (1 Bft)
28.09.2013 22:45 11,8 C 95 % 1012,8 hPa 0,0 l/m 1,3 km/h (1 Bft) N-NW 337 11,0 C 12,0 C 0,0 km/h (0 Bft)
28.09.2013 22:50 11,8 C 95 % 1012,8 hPa 0,0 l/m 1,0 km/h (0 Bft) NW 315 11,0 C 12,0 C 2,1 km/h (1 Bft)
28.09.2013 22:55 11,8 C 95 % 1012,8 hPa 0,0 l/m 1,0 km/h (0 Bft) N 360 11,0 C 12,0 C 3,2 km/h (1 Bft)
28.09.2013 23:00 11,8 C 95 % 1012,8 hPa 0,0 l/m 1,3 km/h (1 Bft) NO 45 11,0 C 12,0 C 3,7 km/h (1 Bft)
28.09.2013 23:05 11,8 C 95 % 1012,6 hPa 0,0 l/m 1,0 km/h (0 Bft) N 360 11,0 C 12,0 C 0,0 km/h (0 Bft)
28.09.2013 23:10 11,8 C 95 % 1012,6 hPa 0,0 l/m 0,3 km/h (0 Bft) NW 315 11,0 C 12,0 C 0,0 km/h (0 Bft)
28.09.2013 23:15 11,7 C 95 % 1012,6 hPa 0,0 l/m 0,8 km/h (0 Bft) N 360 10,9 C 12,0 C 2,1 km/h (1 Bft)
28.09.2013 23:20 11,8 C 95 % 1012,6 hPa 0,0 l/m 1,0 km/h (0 Bft) N-NW 337 11,0 C 12,0 C 0,0 km/h (0 Bft)
28.09.2013 23:25 11,8 C 95 % 1012,4 hPa 0,0 l/m 1,3 km/h (1 Bft) N-NW 337 11,0 C 12,0 C 3,2 km/h (1 Bft)
28.09.2013 23:30 11,8 C 95 % 1012,4 hPa 0,0 l/m 1,3 km/h (1 Bft) SO 135 11,0 C 12,0 C 0,0 km/h (0 Bft)
28.09.2013 23:35 11,8 C 95 % 1012,4 hPa 0,0 l/m 1,6 km/h (1 Bft) N-NW 337 11,0 C 12,0 C 1,9 km/h (1 Bft)
28.09.2013 23:40 11,8 C 95 % 1012,4 hPa 0,0 l/m 1,1 km/h (1 Bft) W-NW 292 11,0 C 12,0 C 0,0 km/h (0 Bft)
28.09.2013 23:45 11,8 C 95 % 1012,3 hPa 0,0 l/m 0,8 km/h (0 Bft) N-NW 337 11,0 C 12,0 C 2,7 km/h (1 Bft)
28.09.2013 23:50 11,8 C 95 % 1012,3 hPa 0,0 l/m 1,3 km/h (1 Bft) NW 315 11,0 C 12,0 C 4,0 km/h (1 Bft)
28.09.2013 23:55 11,8 C 95 % 1012,3 hPa 0,0 l/m 2,1 km/h (1 Bft) N 360 11,0 C 12,0 C 2,7 km/h (1 Bft)
_ Min-Zeit 07:05 14:35 23:55 - 07:25 - - 07:05 06:20 23:40
Minimum _ 11,4 C 83 % 1012,3 hPa - 0,0 km/h (0 Bft) - - 10,8 C 11,6 C 0,0 km/h (0 Bft)
_ Max-Zeit 13:15 09:25 00:00 11:40 20:05 - - 11:40 13:05 19:45
Maximum _ 15,6 C 96 % 1017,0 hPa 0,7 l/m 3,7 km/h
N-NW (1 Bft)
- - 13,5 C 16,9 C 9,5 km/h
N (2 Bft)
Durchschnitt _ 12,9 C 93 % 1014,7 hPa #0,7 l/m 1,5 km/h (1 Bft) N-NW - 11,8 C 13,4 C 2,2 km/h (1 Bft)